• In Österreich
  • Länderverzeichnis
  • Für 7 Tage
  • Wassertemperatur
  • Satellitenkarten
  • Wetterkarte
  • News
  • Widgets
  • user-avatar
    Anmelden

    Stündliche Wetter San Juan

    Heute, 17 Februar, Samstag

    Zeit Temperatur Niederschläge Wind Luftdruck Luftfeuchtigkeit
    00:00 +31°C° 0,6 mm 3 m/S 707 mmHg 45%
    01:00 +31°C° 0 mm 2 m/S 707 mmHg 46%
    02:00 +30°C° 0,4 mm 2 m/S 707 mmHg 47%
    03:00 +30°C° 0,4 mm 2 m/S 707 mmHg 48%
    04:00 +30°C° 0,4 mm 2 m/S 706 mmHg 48%
    05:00 +30°C° 0,4 mm 2 m/S 707 mmHg 47%
    06:00 +30°C° 0,4 mm 2 m/S 707 mmHg 45%
    07:00 +30°C° 0 mm 1 m/S 707 mmHg 45%
    08:00 +31°C° 0,3 mm 1 m/S 707 mmHg 41%
    09:00 +32°C° 0,3 mm 1 m/S 706 mmHg 37%
    10:00 +33°C° 0,3 mm 1 m/S 706 mmHg 33%
    11:00 +35°C° 0,2 mm 2 m/S 706 mmHg 32%
    12:00 +36°C° 0,2 mm 2 m/S 705 mmHg 30%
    13:00 +36°C° 0,2 mm 2 m/S 705 mmHg 28%
    14:00 +37°C° 0,2 mm 3 m/S 704 mmHg 27%
    15:00 +37°C° 0,2 mm 3 m/S 703 mmHg 27%
    16:00 +37°C° 0,2 mm 3 m/S 703 mmHg 27%
    17:00 +36°C° 0,5 mm 3 m/S 703 mmHg 29%
    18:00 +35°C° 0,5 mm 4 m/S 703 mmHg 32%
    19:00 +34°C° 0,5 mm 4 m/S 703 mmHg 34%
    20:00 +34°C° 0,5 mm 4 m/S 703 mmHg 38%
    21:00 +33°C° 0,5 mm 4 m/S 703 mmHg 41%
    22:00 +31°C° 0,5 mm 3 m/S 703 mmHg 44%
    23:00 +31°C° 0,3 mm 3 m/S 703 mmHg 45%

    Morgen, 18 Februar, Sonntag

    Zeit Temperatur Niederschläge Wind Luftdruck Luftfeuchtigkeit
    00:00 +30°C° 0,3 mm 3 m/S 703 mmHg 46%
    01:00 +30°C° 0,3 mm 3 m/S 702 mmHg 47%
    02:00 +30°C° 0,1 mm 2 m/S 702 mmHg 47%
    03:00 +29°C° 0,1 mm 2 m/S 702 mmHg 48%
    04:00 +29°C° 0,1 mm 2 m/S 702 mmHg 48%
    05:00 +29°C° 0,2 mm 2 m/S 702 mmHg 46%
    06:00 +30°C° 0,2 mm 2 m/S 702 mmHg 44%
    07:00 +30°C° 0,2 mm 2 m/S 702 mmHg 41%
    08:00 +31°C° 0,2 mm 2 m/S 702 mmHg 38%
    09:00 +32°C° 0,2 mm 2 m/S 701 mmHg 35%
    10:00 +34°C° 0,2 mm 2 m/S 701 mmHg 32%
    11:00 +35°C° 0,1 mm 2 m/S 701 mmHg 30%
    12:00 +36°C° 0,1 mm 2 m/S 700 mmHg 28%
    13:00 +37°C° 0,1 mm 2 m/S 699 mmHg 25%
    14:00 +37°C° 0,1 mm 3 m/S 699 mmHg 25%
    15:00 +37°C° 0,1 mm 3 m/S 698 mmHg 24%
    16:00 +38°C° 0,1 mm 3 m/S 698 mmHg 24%
    17:00 +37°C° 0,3 mm 3 m/S 699 mmHg 26%
    18:00 +36°C° 0,3 mm 3 m/S 699 mmHg 28%
    19:00 +35°C° 0,3 mm 2 m/S 700 mmHg 30%
    20:00 +34°C° 0,2 mm 2 m/S 700 mmHg 31%
    21:00 +34°C° 0,2 mm 2 m/S 700 mmHg 33%
    22:00 +33°C° 0,2 mm 3 m/S 701 mmHg 35%
    23:00 +31°C° 0,2 mm 3 m/S 701 mmHg 37%

    übermorgen, 19 Februar, Montag

    Zeit Temperatur Niederschläge Wind Luftdruck Luftfeuchtigkeit
    00:00 +31°C° 0,2 mm 2 m/S 700 mmHg 40%
    01:00 +30°C° 0,2 mm 2 m/S 700 mmHg 42%
    02:00 +29°C° 0,2 mm 2 m/S 700 mmHg 45%
    03:00 +29°C° 0,2 mm 3 m/S 700 mmHg 47%
    04:00 +28°C° 0,2 mm 3 m/S 700 mmHg 50%
    05:00 +28°C° 0,6 mm 3 m/S 701 mmHg 54%
    06:00 +28°C° 0,6 mm 4 m/S 701 mmHg 57%
    07:00 +27°C° 0,6 mm 4 m/S 702 mmHg 61%
    08:00 +28°C° 0,7 mm 5 m/S 702 mmHg 57%
    09:00 +29°C° 0,7 mm 5 m/S 702 mmHg 53%
    10:00 +30°C° 0,7 mm 5 m/S 702 mmHg 49%
    11:00 +32°C° 0,6 mm 5 m/S 701 mmHg 48%
    12:00 +32°C° 0,6 mm 5 m/S 701 mmHg 46%
    13:00 +33°C° 0,6 mm 5 m/S 700 mmHg 44%
    14:00 +33°C° 0,6 mm 5 m/S 700 mmHg 44%
    15:00 +33°C° 0,6 mm 4 m/S 700 mmHg 43%
    16:00 +33°C° 0,6 mm 4 m/S 699 mmHg 43%
    17:00 +32°C° 1,3 mm 4 m/S 700 mmHg 45%
    18:00 +30°C° 1,3 mm 4 m/S 700 mmHg 47%
    19:00 +30°C° 1,3 mm 4 m/S 701 mmHg 49%
    20:00 +29°C° 1 mm 4 m/S 701 mmHg 49%
    21:00 +29°C° 1 mm 4 m/S 702 mmHg 49%
    22:00 +28°C° 1 mm 4 m/S 702 mmHg 49%
    23:00 +28°C° 0,8 mm 3 m/S 702 mmHg 50%

    20 Februar, Dienstag

    Zeit Temperatur Niederschläge Wind Luftdruck Luftfeuchtigkeit
    00:00 +28°C° 0,8 mm 3 m/S 702 mmHg 51%
    01:00 +27°C° 0,8 mm 3 m/S 702 mmHg 52%
    02:00 +27°C° 0,3 mm 3 m/S 702 mmHg 53%
    03:00 +26°C° 0,3 mm 3 m/S 702 mmHg 54%
    04:00 +26°C° 0,3 mm 3 m/S 703 mmHg 55%
    05:00 +26°C° 0,1 mm 4 m/S 703 mmHg 53%
    06:00 +26°C° 0,1 mm 5 m/S 704 mmHg 50%
    07:00 +26°C° 0,1 mm 6 m/S 705 mmHg 48%
    08:00 +27°C° 0 mm 6 m/S 705 mmHg 42%
    09:00 +28°C° 0 mm 6 m/S 705 mmHg 37%
    10:00 +29°C° 0 mm 6 m/S 705 mmHg 31%
    11:00 +30°C° 0 mm 6 m/S 705 mmHg 30%
    12:00 +32°C° 0 mm 6 m/S 704 mmHg 29%
    13:00 +32°C° 0 mm 6 m/S 704 mmHg 28%
    14:00 +32°C° 0 mm 5 m/S 704 mmHg 28%
    15:00 +33°C° 0 mm 5 m/S 703 mmHg 29%
    16:00 +33°C° 0 mm 5 m/S 703 mmHg 29%
    17:00 +32°C° 0 mm 5 m/S 704 mmHg 32%
    18:00 +30°C° 0 mm 5 m/S 705 mmHg 35%
    19:00 +29°C° 0 mm 5 m/S 705 mmHg 38%
    20:00 +29°C° 0,2 mm 4 m/S 706 mmHg 40%
    21:00 +28°C° 0,2 mm 4 m/S 706 mmHg 41%
    22:00 +28°C° 0,2 mm 4 m/S 707 mmHg 43%
    23:00 +28°C° 0 mm 3 m/S 707 mmHg 44%

    21 Februar, Mittwoch

    Zeit Temperatur Niederschläge Wind Luftdruck Luftfeuchtigkeit
    00:00 +27°C° 0 mm 3 m/S 707 mmHg 45%
    01:00 +27°C° 0 mm 2 m/S 707 mmHg 46%
    02:00 +26°C° 0 mm 2 m/S 707 mmHg 48%
    03:00 +26°C° 0 mm 2 m/S 706 mmHg 50%
    04:00 +25°C° 0 mm 1 m/S 706 mmHg 52%
    05:00 +26°C° 0 mm 1 m/S 707 mmHg 51%
    06:00 +26°C° 0 mm 1 m/S 707 mmHg 49%
    07:00 +27°C° 0 mm 1 m/S 708 mmHg 48%
    08:00 +28°C° 0 mm 2 m/S 707 mmHg 45%
    09:00 +29°C° 0 mm 3 m/S 707 mmHg 41%
    10:00 +30°C° 0 mm 4 m/S 707 mmHg 38%
    11:00 +32°C° 0 mm 4 m/S 706 mmHg 36%
    12:00 +34°C° 0 mm 5 m/S 705 mmHg 33%
    13:00 +35°C° 0 mm 5 m/S 705 mmHg 31%
    14:00 +35°C° 0 mm 5 m/S 704 mmHg 30%
    15:00 +35°C° 0 mm 5 m/S 703 mmHg 29%
    16:00 +36°C° 0 mm 5 m/S 703 mmHg 28%
    17:00 +35°C° 0 mm 5 m/S 703 mmHg 30%
    18:00 +34°C° 0 mm 5 m/S 703 mmHg 33%
    19:00 +33°C° 0 mm 4 m/S 703 mmHg 35%
    20:00 +32°C° 0 mm 4 m/S 704 mmHg 38%
    21:00 +30°C° 0 mm 4 m/S 704 mmHg 41%
    22:00 +30°C° 0 mm 4 m/S 704 mmHg 44%
    23:00 +29°C° 0 mm 4 m/S 704 mmHg 45%

    22 Februar, Donnerstag

    Zeit Temperatur Niederschläge Wind Luftdruck Luftfeuchtigkeit
    00:00 +29°C° 0 mm 4 m/S 704 mmHg 46%
    01:00 +28°C° 0 mm 3 m/S 703 mmHg 47%
    02:00 +28°C° 0,1 mm 3 m/S 703 mmHg 48%
    03:00 +27°C° 0,1 mm 3 m/S 703 mmHg 49%
    04:00 +27°C° 0,1 mm 2 m/S 703 mmHg 50%
    05:00 +27°C° 0,2 mm 2 m/S 704 mmHg 49%
    06:00 +28°C° 0,2 mm 3 m/S 704 mmHg 48%
    07:00 +28°C° 0,2 mm 3 m/S 704 mmHg 47%
    08:00 +29°C° 0,2 mm 3 m/S 704 mmHg 44%
    09:00 +30°C° 0,2 mm 2 m/S 704 mmHg 41%
    10:00 +32°C° 0,2 mm 2 m/S 704 mmHg 39%
    11:00 +32°C° 0,2 mm 2 m/S 704 mmHg 37%
    12:00 +34°C° 0,2 mm 2 m/S 703 mmHg 35%
    13:00 +35°C° 0,2 mm 2 m/S 703 mmHg 33%
    14:00 +35°C° 0,3 mm 2 m/S 702 mmHg 33%
    15:00 +35°C° 0,3 mm 2 m/S 702 mmHg 32%
    16:00 +35°C° 0,3 mm 2 m/S 702 mmHg 31%
    17:00 +34°C° 0,6 mm 3 m/S 702 mmHg 34%
    18:00 +34°C° 0,6 mm 3 m/S 702 mmHg 36%
    19:00 +33°C° 0,6 mm 4 m/S 703 mmHg 39%
    20:00 +32°C° 0,7 mm 4 m/S 703 mmHg 43%
    21:00 +30°C° 0,7 mm 4 m/S 703 mmHg 47%
    22:00 +30°C° 0,7 mm 4 m/S 703 mmHg 51%
    23:00 +29°C° 0,3 mm 4 m/S 703 mmHg 52%
    Mehr zeigen